Time,TemperatureF,DewpointF,PressureIn,WindDirection,WindDirectionDegrees,WindSpeedMPH,WindSpeedGustMPH,Humidity,HourlyPrecipIn,Conditions,Clouds,dailyrainin,SoftwareType,DateUTC
2013-03-31 00:13:00,42.0,20.0,-100.00,WSW,245,0.0,5.0,40,-99.99,,,-99.99,,2013-03-31 04:13:00,
2013-03-31 00:23:00,42.0,20.0,-100.00,WSW,245,0.0,5.0,40,-99.99,,,-99.99,,2013-03-31 04:23:00,
2013-03-31 00:33:00,42.0,20.0,-100.00,SSW,205,0.0,2.0,40,-99.99,,,-99.99,,2013-03-31 04:33:00,
2013-03-31 00:42:00,42.0,20.0,-100.00,West,270,0.0,2.0,41,-99.99,,,-99.99,,2013-03-31 04:42:00,
2013-03-31 00:52:00,42.0,20.0,-100.00,West,270,0.0,2.0,41,-99.99,,,-99.99,,2013-03-31 04:52:00,
2013-03-31 01:02:00,41.0,20.0,-100.00,WSW,250,0.0,2.0,43,-99.99,,,-99.99,,2013-03-31 05:02:00,
2013-03-31 01:13:00,41.0,20.0,-100.00,SW,235,0.0,2.0,44,-99.99,,,-99.99,,2013-03-31 05:13:00,
2013-03-31 01:22:00,41.0,20.0,-100.00,SW,235,0.0,2.0,44,-99.99,,,-99.99,,2013-03-31 05:22:00,
2013-03-31 01:32:00,40.0,20.0,-100.00,South,185,1.0,4.0,45,-99.99,,,-99.99,,2013-03-31 05:32:00,
2013-03-31 01:42:00,39.0,20.0,-100.00,WSW,250,0.0,3.0,47,-99.99,,,-99.99,,2013-03-31 05:42:00,
2013-03-31 01:53:00,39.0,20.0,-100.00,WSW,250,0.0,3.0,47,-99.99,,,-99.99,,2013-03-31 05:53:00,
2013-03-31 02:02:00,38.0,21.0,-100.00,West,265,0.0,2.0,50,-99.99,,,-99.99,,2013-03-31 06:02:00,
2013-03-31 02:12:00,37.0,22.0,-100.00,WSW,250,0.0,4.0,54,-99.99,,,-99.99,,2013-03-31 06:12:00,
2013-03-31 02:23:00,37.0,22.0,-100.00,WSW,250,0.0,4.0,54,-99.99,,,-99.99,,2013-03-31 06:23:00,
2013-03-31 02:33:00,37.0,23.0,-100.00,WSW,255,0.0,2.0,55,-99.99,,,-99.99,,2013-03-31 06:33:00,
2013-03-31 02:42:00,38.0,24.0,-100.00,WSW,250,1.0,5.0,55,-99.99,,,-99.99,,2013-03-31 06:42:00,
2013-03-31 02:52:00,38.0,24.0,-100.00,WSW,250,1.0,5.0,55,-99.99,,,-99.99,,2013-03-31 06:52:00,
2013-03-31 03:02:00,38.0,23.0,-100.00,West,265,0.0,1.0,55,-99.99,,,-99.99,,2013-03-31 07:02:00,
2013-03-31 03:12:00,39.0,24.0,-100.00,West,270,0.0,4.0,55,-99.99,,,-99.99,,2013-03-31 07:12:00,
2013-03-31 03:22:00,39.0,24.0,-100.00,West,270,0.0,4.0,55,-99.99,,,-99.99,,2013-03-31 07:22:00,
2013-03-31 03:33:00,38.0,24.0,-100.00,West,270,0.0,0.0,56,-99.99,,,-99.99,,2013-03-31 07:33:00,
2013-03-31 03:43:00,38.0,24.0,-100.00,West,260,0.0,1.0,58,-99.99,,,-99.99,,2013-03-31 07:43:00,
2013-03-31 03:53:00,38.0,24.0,-100.00,West,260,0.0,1.0,58,-99.99,,,-99.99,,2013-03-31 07:53:00,
2013-03-31 04:02:00,37.0,25.0,-100.00,West,260,0.0,1.0,60,-99.99,,,-99.99,,2013-03-31 08:02:00,
2013-03-31 04:12:00,37.0,26.0,-100.00,West,265,0.0,1.0,62,-99.99,,,-99.99,,2013-03-31 08:12:00,
2013-03-31 04:22:00,37.0,26.0,-100.00,West,265,0.0,1.0,62,-99.99,,,-99.99,,2013-03-31 08:22:00,
2013-03-31 04:42:00,36.0,26.0,-100.00,West,260,0.0,0.0,67,-99.99,,,-99.99,,2013-03-31 08:42:00,
2013-03-31 04:52:00,36.0,26.0,-100.00,West,260,0.0,0.0,67,-99.99,,,-99.99,,2013-03-31 08:52:00,
2013-03-31 05:02:00,35.0,27.0,-100.00,WSW,255,0.0,0.0,70,-99.99,,,-99.99,,2013-03-31 09:02:00,
2013-03-31 05:12:00,35.0,27.0,-100.00,WSW,255,0.0,0.0,72,-99.99,,,-99.99,,2013-03-31 09:12:00,
2013-03-31 05:22:00,35.0,27.0,-100.00,WSW,255,0.0,0.0,72,-99.99,,,-99.99,,2013-03-31 09:22:00,
2013-03-31 05:33:00,34.0,27.0,-100.00,WSW,255,0.0,0.0,75,-99.99,,,-99.99,,2013-03-31 09:33:00,
2013-03-31 05:43:00,34.0,27.0,-100.00,WSW,255,0.0,0.0,76,-99.99,,,-99.99,,2013-03-31 09:43:00,
2013-03-31 05:53:00,34.0,27.0,-100.00,WSW,255,0.0,0.0,76,-99.99,,,-99.99,,2013-03-31 09:53:00,
2013-03-31 06:03:00,33.0,28.0,-100.00,WSW,250,0.0,0.0,79,-99.99,,,-99.99,,2013-03-31 10:03:00,
2013-03-31 06:13:00,33.0,28.0,-100.00,SW,220,0.0,0.0,81,-99.99,,,-99.99,,2013-03-31 10:13:00,
2013-03-31 06:24:00,33.0,28.0,-100.00,SW,220,0.0,0.0,81,-99.99,,,-99.99,,2013-03-31 10:24:00,
2013-03-31 06:33:00,33.0,28.0,-100.00,SW,225,0.0,1.0,82,-99.99,,,-99.99,,2013-03-31 10:33:00,
2013-03-31 06:42:00,33.0,28.0,-100.00,SW,225,0.0,0.0,84,-99.99,,,-99.99,,2013-03-31 10:42:00,
2013-03-31 06:53:00,33.0,28.0,-100.00,SW,225,0.0,0.0,84,-99.99,,,-99.99,,2013-03-31 10:53:00,
2013-03-31 07:03:00,32.0,28.0,-100.00,SW,225,0.0,0.0,85,-99.99,,,-99.99,,2013-03-31 11:03:00,
2013-03-31 07:12:00,32.0,28.0,-100.00,SW,225,0.0,0.0,86,-99.99,,,-99.99,,2013-03-31 11:12:00,
2013-03-31 07:23:00,32.0,28.0,-100.00,SW,225,0.0,0.0,86,-99.99,,,-99.99,,2013-03-31 11:23:00,
2013-03-31 07:33:00,32.0,29.0,-100.00,SSE,160,0.0,0.0,87,-99.99,,,-99.99,,2013-03-31 11:33:00,
2013-03-31 07:42:00,32.0,29.0,-100.00,SSE,160,0.0,0.0,88,-99.99,,,-99.99,,2013-03-31 11:42:00,
2013-03-31 07:52:00,32.0,29.0,-100.00,SSE,160,0.0,0.0,88,-99.99,,,-99.99,,2013-03-31 11:52:00,
2013-03-31 08:03:00,33.0,30.0,-100.00,SSE,160,0.0,0.0,89,-99.99,,,-99.99,,2013-03-31 12:03:00,
2013-03-31 08:12:00,33.0,31.0,-100.00,SSE,160,0.0,0.0,89,-99.99,,,-99.99,,2013-03-31 12:12:00,
2013-03-31 08:22:00,33.0,31.0,-100.00,SSE,160,0.0,0.0,89,-99.99,,,-99.99,,2013-03-31 12:22:00,
2013-03-31 08:33:00,35.0,32.0,-100.00,SSE,160,0.0,0.0,89,-99.99,,,-99.99,,2013-03-31 12:33:00,
2013-03-31 08:42:00,37.0,34.0,-100.00,SW,230,0.0,2.0,89,-99.99,,,-99.99,,2013-03-31 12:42:00,
2013-03-31 08:52:00,37.0,34.0,-100.00,SW,230,0.0,2.0,89,-99.99,,,-99.99,,2013-03-31 12:52:00,
2013-03-31 09:32:00,46.0,35.0,-100.00,SW,230,3.0,6.0,67,-99.99,,,-99.99,,2013-03-31 13:32:00,
2013-03-31 09:42:00,48.0,33.0,-100.00,SW,215,1.0,6.0,55,-99.99,,,-99.99,,2013-03-31 13:42:00,
2013-03-31 09:52:00,48.0,33.0,-100.00,SW,215,1.0,6.0,55,-99.99,,,-99.99,,2013-03-31 13:52:00,
2013-03-31 10:12:00,52.0,28.0,-100.00,South,190,4.0,9.0,39,-99.99,,,-99.99,,2013-03-31 14:12:00,
2013-03-31 10:22:00,52.0,28.0,-100.00,South,190,4.0,9.0,39,-99.99,,,-99.99,,2013-03-31 14:22:00,
2013-03-31 10:33:00,53.0,26.0,-100.00,WSW,240,4.0,9.0,34,-99.99,,,-99.99,,2013-03-31 14:33:00,
2013-03-31 10:43:00,54.0,25.0,-100.00,SW,230,7.0,16.0,32,-99.99,,,-99.99,,2013-03-31 14:43:00,
2013-03-31 10:52:00,54.0,25.0,-100.00,SW,230,7.0,16.0,32,-99.99,,,-99.99,,2013-03-31 14:52:00,
2013-03-31 11:03:00,55.0,24.0,-100.00,SW,215,4.0,12.0,30,-99.99,,,-99.99,,2013-03-31 15:03:00,
2013-03-31 11:13:00,57.0,25.0,-100.00,SW,225,3.0,11.0,29,-99.99,,,-99.99,,2013-03-31 15:13:00,
2013-03-31 11:23:00,57.0,25.0,-100.00,SW,225,3.0,11.0,29,-99.99,,,-99.99,,2013-03-31 15:23:00,
2013-03-31 11:34:00,57.0,22.0,-100.00,SW,220,8.0,19.0,26,-99.99,,,-99.99,,2013-03-31 15:34:00,
2013-03-31 11:43:00,57.0,23.0,-100.00,SW,220,4.0,13.0,26,-99.99,,,-99.99,,2013-03-31 15:43:00,
2013-03-31 11:53:00,57.0,23.0,-100.00,SW,220,4.0,13.0,26,-99.99,,,-99.99,,2013-03-31 15:53:00,
2013-03-31 12:03:00,57.0,23.0,-100.00,SW,220,4.0,14.0,26,-99.99,,,-99.99,,2013-03-31 16:03:00,
2013-03-31 12:13:00,56.0,22.0,-100.00,SW,230,5.0,17.0,26,-99.99,,,-99.99,,2013-03-31 16:13:00,
2013-03-31 12:23:00,56.0,22.0,-100.00,SW,230,5.0,17.0,26,-99.99,,,-99.99,,2013-03-31 16:23:00,
2013-03-31 12:33:00,57.0,23.0,-100.00,SSW,195,6.0,16.0,27,-99.99,,,-99.99,,2013-03-31 16:33:00,
2013-03-31 12:43:00,57.0,24.0,-100.00,SSW,195,8.0,16.0,28,-99.99,,,-99.99,,2013-03-31 16:43:00,
2013-03-31 12:53:00,57.0,24.0,-100.00,SSW,195,8.0,16.0,28,-99.99,,,-99.99,,2013-03-31 16:53:00,
2013-03-31 13:03:00,57.0,26.0,-100.00,SSW,200,4.0,16.0,30,-99.99,,,-99.99,,2013-03-31 17:03:00,
2013-03-31 13:13:00,56.0,25.0,-100.00,SW,220,1.0,22.0,30,-99.99,,,-99.99,,2013-03-31 17:13:00,
2013-03-31 13:23:00,56.0,25.0,-100.00,SW,220,1.0,22.0,30,-99.99,,,-99.99,,2013-03-31 17:23:00,
2013-03-31 13:32:00,56.0,26.0,-100.00,SW,235,5.0,17.0,31,-99.99,,,-99.99,,2013-03-31 17:32:00,
2013-03-31 13:43:00,56.0,27.0,-100.00,South,185,2.0,16.0,32,-99.99,,,-99.99,,2013-03-31 17:43:00,
2013-03-31 13:52:00,56.0,27.0,-100.00,South,185,2.0,16.0,32,-99.99,,,-99.99,,2013-03-31 17:52:00,
2013-03-31 14:03:00,56.0,27.0,-100.00,SW,220,7.0,15.0,33,-99.99,,,-99.99,,2013-03-31 18:03:00,
2013-03-31 14:13:00,56.0,27.0,-100.00,SW,220,7.0,15.0,33,-99.99,,,-99.99,,2013-03-31 18:13:00,
2013-03-31 14:33:00,54.0,27.0,-100.00,SW,225,8.0,23.0,34,-99.99,,,-99.99,,2013-03-31 18:33:00,
2013-03-31 14:42:00,55.0,28.0,-100.00,SSW,210,5.0,14.0,35,-99.99,,,-99.99,,2013-03-31 18:42:00,
2013-03-31 14:52:00,55.0,28.0,-100.00,SSW,210,5.0,14.0,35,-99.99,,,-99.99,,2013-03-31 18:52:00,
2013-03-31 15:03:00,55.0,28.0,-100.00,SSW,205,3.0,19.0,36,-99.99,,,-99.99,,2013-03-31 19:03:00,
2013-03-31 15:13:00,55.0,29.0,-100.00,SW,215,6.0,15.0,37,-99.99,,,-99.99,,2013-03-31 19:13:00,
2013-03-31 15:22:00,55.0,29.0,-100.00,SW,215,6.0,15.0,37,-99.99,,,-99.99,,2013-03-31 19:22:00,
2013-03-31 15:33:00,55.0,28.0,-100.00,SSW,195,3.0,13.0,36,-99.99,,,-99.99,,2013-03-31 19:33:00,
2013-03-31 15:43:00,55.0,28.0,-100.00,SSW,200,4.0,13.0,36,-99.99,,,-99.99,,2013-03-31 19:43:00,
2013-03-31 15:53:00,55.0,28.0,-100.00,SSW,200,4.0,13.0,36,-99.99,,,-99.99,,2013-03-31 19:53:00,
2013-03-31 16:03:00,54.0,28.0,-100.00,South,175,4.0,12.0,36,-99.99,,,-99.99,,2013-03-31 20:03:00,
2013-03-31 16:13:00,54.0,28.0,-100.00,SSE,150,2.0,13.0,37,-99.99,,,-99.99,,2013-03-31 20:13:00,
2013-03-31 16:23:00,54.0,28.0,-100.00,SSE,150,2.0,13.0,37,-99.99,,,-99.99,,2013-03-31 20:23:00,
2013-03-31 16:43:00,52.0,29.0,-100.00,South,180,4.0,14.0,40,-99.99,,,-99.99,,2013-03-31 20:43:00,
2013-03-31 16:52:00,52.0,29.0,-100.00,South,180,4.0,14.0,40,-99.99,,,-99.99,,2013-03-31 20:52:00,
2013-03-31 17:01:00,48.0,42.0,-100.00,SSE,165,2.0,9.0,79,-99.99,,,-99.99,,2013-03-31 21:01:00,
2013-03-31 17:03:00,52.0,31.0,-100.00,SW,215,4.0,13.0,44,-99.99,,,-99.99,,2013-03-31 21:03:00,
2013-03-31 17:13:00,50.0,35.0,-100.00,SW,215,4.0,13.0,56,-99.99,,,-99.99,,2013-03-31 21:13:00,
2013-03-31 17:22:00,50.0,35.0,-100.00,SW,215,4.0,13.0,56,-99.99,,,-99.99,,2013-03-31 21:22:00,
2013-03-31 17:34:00,48.0,39.0,-100.00,South,185,2.0,12.0,70,-99.99,,,-99.99,,2013-03-31 21:34:00,
2013-03-31 17:43:00,48.0,42.0,-100.00,SSE,165,2.0,9.0,79,-99.99,,,-99.99,,2013-03-31 21:43:00,
2013-03-31 17:54:00,48.0,42.0,-100.00,SSE,165,2.0,9.0,79,-99.99,,,-99.99,,2013-03-31 21:54:00,
2013-03-31 18:13:00,46.0,43.0,-100.00,SSE,160,4.0,11.0,87,-99.99,,,-99.99,,2013-03-31 22:13:00,
2013-03-31 18:24:00,46.0,43.0,-100.00,SSE,160,4.0,11.0,87,-99.99,,,-99.99,,2013-03-31 22:24:00,
2013-03-31 18:33:00,46.0,43.0,-100.00,South,185,3.0,10.0,89,-99.99,,,-99.99,,2013-03-31 22:33:00,
2013-03-31 18:43:00,46.0,43.0,-100.00,South,175,3.0,12.0,90,-99.99,,,-99.99,,2013-03-31 22:43:00,
2013-03-31 18:53:00,46.0,43.0,-100.00,South,175,3.0,12.0,90,-99.99,,,-99.99,,2013-03-31 22:53:00,
2013-03-31 19:03:00,45.0,43.0,-100.00,South,190,4.0,12.0,91,-99.99,,,-99.99,,2013-03-31 23:03:00,
2013-03-31 19:13:00,45.0,43.0,-100.00,SSE,155,6.0,14.0,92,-99.99,,,-99.99,,2013-03-31 23:13:00,
2013-03-31 19:22:00,45.0,43.0,-100.00,SSE,155,6.0,14.0,92,-99.99,,,-99.99,,2013-03-31 23:22:00,
2013-03-31 19:31:00,45.0,43.0,-100.00,South,175,3.0,10.0,93,-99.99,,,-99.99,,2013-03-31 23:31:00,
2013-03-31 19:33:00,45.0,43.0,-100.00,SE,140,5.0,14.0,93,-99.99,,,-99.99,,2013-03-31 23:33:00,
2013-03-31 19:43:00,45.0,43.0,-100.00,SSE,160,4.0,16.0,93,-99.99,,,-99.99,,2013-03-31 23:43:00,
2013-03-31 19:53:00,45.0,43.0,-100.00,SSE,160,4.0,16.0,93,-99.99,,,-99.99,,2013-03-31 23:53:00,
2013-03-31 20:03:00,45.0,43.0,-100.00,SE,130,5.0,13.0,93,-99.99,,,-99.99,,2013-04-01 00:03:00,
2013-03-31 20:13:00,45.0,43.0,-100.00,South,175,3.0,10.0,93,-99.99,,,-99.99,,2013-04-01 00:13:00,
2013-03-31 20:22:00,45.0,43.0,-100.00,South,175,3.0,10.0,93,-99.99,,,-99.99,,2013-04-01 00:22:00,
2013-03-31 21:03:00,45.0,44.0,-100.00,SSE,165,2.0,14.0,94,-99.99,,,-99.99,,2013-04-01 01:03:00,
2013-03-31 21:13:00,46.0,44.0,-100.00,SSE,155,5.0,10.0,94,-99.99,,,-99.99,,2013-04-01 01:13:00,
2013-03-31 21:23:00,46.0,44.0,-100.00,SSE,155,5.0,10.0,94,-99.99,,,-99.99,,2013-04-01 01:23:00,
2013-03-31 21:33:00,46.0,44.0,-100.00,SSW,195,0.0,8.0,94,-99.99,,,-99.99,,2013-04-01 01:33:00,
2013-03-31 21:43:00,46.0,44.0,-100.00,WNW,300,0.0,3.0,94,-99.99,,,-99.99,,2013-04-01 01:43:00,
2013-03-31 21:52:00,46.0,44.0,-100.00,WNW,300,0.0,3.0,94,-99.99,,,-99.99,,2013-04-01 01:52:00,
2013-03-31 22:03:00,46.0,44.0,-100.00,North,0,0.0,2.0,94,-99.99,,,-99.99,,2013-04-01 02:03:00,
2013-03-31 22:13:00,46.0,45.0,-100.00,West,260,0.0,0.0,94,-99.99,,,-99.99,,2013-04-01 02:13:00,
2013-03-31 22:23:00,46.0,45.0,-100.00,West,260,0.0,0.0,94,-99.99,,,-99.99,,2013-04-01 02:23:00,
2013-03-31 22:33:00,46.0,45.0,-100.00,ESE,105,0.0,0.0,94,-99.99,,,-99.99,,2013-04-01 02:33:00,
2013-03-31 22:42:00,46.0,45.0,-100.00,North,5,0.0,1.0,94,-99.99,,,-99.99,,2013-04-01 02:42:00,
2013-03-31 22:52:00,46.0,45.0,-100.00,North,5,0.0,1.0,94,-99.99,,,-99.99,,2013-04-01 02:52:00,
2013-03-31 23:03:00,46.0,45.0,-100.00,North,5,0.0,0.0,94,-99.99,,,-99.99,,2013-04-01 03:03:00,
2013-03-31 23:12:00,46.0,45.0,-100.00,NW,310,0.0,3.0,94,-99.99,,,-99.99,,2013-04-01 03:12:00,
2013-03-31 23:23:00,46.0,45.0,-100.00,NW,310,0.0,3.0,94,-99.99,,,-99.99,,2013-04-01 03:23:00,
2013-03-31 23:34:00,46.0,45.0,-100.00,West,280,0.0,2.0,94,-99.99,,,-99.99,,2013-04-01 03:34:00,
2013-03-31 23:43:00,47.0,45.0,-100.00,West,265,1.0,7.0,94,-99.99,,,-99.99,,2013-04-01 03:43:00,
2013-03-31 23:53:00,47.0,45.0,-100.00,West,265,1.0,7.0,94,-99.99,,,-99.99,,2013-04-01 03:53:00,